Regional Weather Roundup
Issued by NWS Grand Forks, ND

Home | Current Version | Previous Version | Graphics & Text | Print | Product List | Glossary On
Versions: 1 2 3 4 5 6 7 8 9 10 11 12 13 14 15 16 17 18 19 20 21 22 23 24 25 26 27 28 29 30 31 32 33 34 35 36 37 38 39 40 41 42 43 44 45 46 47 48 49 50
000
ASUS43 KFGF 290631
RWRFGF
PRAIRIE TO PINES  WEATHER ROUNDUP
NATIONAL WEATHER SERVICE EASTERN NORTH DAKOTA/GRAND FORKS ND
100 AM CDT SAT AUG 29 2015

 **SATELLITE DATA USED TO AUGMENT SKY COVER AT AUTOMATED STATIONS**
 *****  WEATHER ACROSS EASTERN NORTH DAKOTA  *****

CITY           SKY/WX    TMP DP  RH WIND       PRES   REMARKS
GRAND FORKS    FAIR      67  65  93 S6        29.88R
6HR MIN TEMP:  66; 6HR MAX TEMP:  79;

GRAND FRKS AFB FAIR      66  64  94 S5        29.88S
GRAND FRKS NWS   N/A     66 N/A N/A S10         N/A
DEVILS LAKE    FAIR      64  57  77 CALM      29.89S
6HR MIN TEMP:  63; 6HR MAX TEMP:  79;

FARGO          FAIR      69  63  81 S12       29.93R
WAHPETON ARPT  FAIR      63  59  88 S9        29.96F
$$

 ***** WEATHER ACROSS CENTRAL AND WESTERN NORTH DAKOTA  *****

CITY           SKY/WX    TMP DP  RH WIND       PRES   REMARKS
BISMARCK       CLEAR     66  64  93 SE5       29.92S
6HR MIN TEMP:  65; 6HR MAX TEMP:  87;

MINOT          CLOUDY    65  60  84 CALM      29.88F
6HR MIN TEMP:  63; 6HR MAX TEMP:  83;

JAMESTOWN      FAIR      67  64  90 S5        29.92R
6HR MIN TEMP:  67; 6HR MAX TEMP:  78;

MINOT AFB      FAIR      62  61  96 S7        29.87S
GARRISON         N/A     62  30  29 CALM      29.91S
WILLISTON      CLOUDY    60  48  64 W3        29.92S HAZE
6HR MIN TEMP:  56; 6HR MAX TEMP:  87;

DICKINSON      CLOUDY    56  48  74 S8        29.96F HAZE
6HR MIN TEMP:  56; 6HR MAX TEMP:  85;

HETTINGER      CLOUDY    56  50  80 CALM      30.01F HAZE
6HR MIN TEMP:  54; 6HR MAX TEMP:  82;

$$

 *****  OTHER AIRPORT OBSERVATIONS IN OUR AREA  *****

CITY           SKY/WX    TMP DP  RH WIND       PRES   REMARKS
WALHALLA       FAIR      63  63 100 MISG      29.89R FOG
GRAFTON AIRPOR FAIR      66  66 100 CALM      29.88S
VALLEY CITY AR CLOUDY    66  66 100 S10       29.93R
CANDO          FAIR      63  61  94 CALM      29.91R
CAVALIER APRT  FAIR      64  64 100 CALM      29.87S FOG
GWINNER          N/A     66  66 100 S10       29.96R
ROLLA          CLOUDY    55  55 100 CALM      29.93S
 ***** THE ABOVE OBSERVATIONS ARE NON NWS ARE NOT QUALITY
       CONTROLLED AND MAY MIS-REPORT RAIN FOR SNOW...
$$

  *****  WEATHER ACROSS NORTHERN MINNESOTA  *****

CITY           SKY/WX    TMP DP  RH WIND       PRES   REMARKS
FLAG ISLAND    FAIR      66  64  94 CALM      29.88R
WARROAD        FAIR      66  63  88 S3        29.91R
ROSEAU         FAIR      63  57  82 CALM      29.90R HAZE
HALLOCK        FAIR      63  61  94 SE7       29.87R FOG
THF RVR FALLS  FAIR     N/A N/A N/A S8        29.90S
BAUDETTE       FAIR      69  65  86 W8        29.91R
6HR MIN TEMP:  68; 6HR MAX TEMP:  78;

WASKISH        CLOUDY    70  64  83 S3        29.94R
CROOKSTON      FAIR      68  64  88 S7        29.91S
STEPHEN NDAWN    N/A     66  66 100 S3          N/A
GREENBUSH NDAW   N/A     63  63 100 E1          N/A
$$
  *****  WEATHER ACROSS CENTRAL AND WEST MINNESOTA  *****

CITY           SKY/WX    TMP DP  RH WIND       PRES   REMARKS
FOSSTON        FAIR      64  61  88 S12       29.94S
BEMIDJI        FAIR      66  63  89 SW7       29.95S
PARK RAPIDS    FAIR      64  60  87 S8        29.98F
6HR MIN TEMP:  64; 6HR MAX TEMP:  77;

ELBOW LAKE     FAIR      60  59  97 S8        30.00S
6HR MIN TEMP:  60; 6HR MAX TEMP:  73;

WADENA         FAIR      61  61 100 S6        29.99F
DETROIT LAKES  FAIR      66  61  82 SW12      29.98S
MOORHEAD       FAIR      66  63  88 S9        29.95R
FERGUS FALLS   FAIR      63  63 100 S10       29.98S
MORRIS MN      FAIR      61  57  88 S7        30.00S
STAPLES        FAIR      61  57  88 S8        30.00S
$$
  *****  WEATHER ELSEWHERE ACROSS MINNESOTA  *****

CITY           SKY/WX    TMP DP  RH WIND       PRES   REMARKS
DULUTH         FAIR      62  59  90 SW8       30.02R
6HR MIN TEMP:  62; 6HR MAX TEMP:  74;

INTRNTL FALLS  MOCLDY    69  65  86 SW7       29.93R
6HR MIN TEMP:  69; 6HR MAX TEMP:  76;

ELY            CLOUDY    61  57  88 SE10      29.99F
CLOQUET        FAIR      61  57  88 S5        30.02S
WHEATON        FAIR      61  57  88 S8        30.00S
BRAINERD       FAIR      61  59  93 S9        30.01F
6HR MIN TEMP:  61; 6HR MAX TEMP:  75;

HIBBING        FAIR      66  61  84 SW7       29.99R
6HR MIN TEMP:  66; 6HR MAX TEMP:  75;

ALEXANDRIA     FAIR      61  59  93 S9        30.03S
6HR MIN TEMP:  61; 6HR MAX TEMP:  73;

SAINT CLOUD    FAIR      55  55 100 S3        30.03S
6HR MIN TEMP:  55; 6HR MAX TEMP:  70;

MINNEAPOLIS    FAIR      60  56  86 NE6       30.04S
6HR MIN TEMP:  60; 6HR MAX TEMP:  68;

$$

  *****  WEATHER ACROSS SOUTH DAKOTA  *****

CITY           SKY/WX    TMP DP  RH WIND       PRES   REMARKS
SIOUX FALLS    FAIR      56  55  97 CALM      30.04R
6HR MIN TEMP:  56; 6HR MAX TEMP:  69;

BROOKINGS      FAIR      57  54  88 CALM      30.05S
WATERTOWN      FAIR      61  59  93 S9        30.02S
6HR MIN TEMP:  61; 6HR MAX TEMP:  73;

HURON          CLEAR     64  62  93 S9        30.00F
6HR MIN TEMP:  64; 6HR MAX TEMP:  76;

SISSETON         N/A     62  59  90 S6        29.96F
ABERDEEN       CLEAR     66  63  90 S10       29.97S
6HR MIN TEMP:  66; 6HR MAX TEMP:  76;

MITCHELL       CLEAR     62  61  96 S8        30.03S
PIERRE         CLEAR     66  64  93 S8        29.98F
6HR MIN TEMP:  66; 6HR MAX TEMP:  81;

MOBRIDGE       CLEAR     68  68 100 SE8       29.94S
RAPID CITY     CLEAR     60  57  89 NW3       30.08S
6HR MIN TEMP:  60; 6HR MAX TEMP:  82;

$$

  *****  SOME WEATHER IN NEARBY STATES *****

CITY           SKY/WX    TMP DP  RH WIND       PRES   REMARKS
GLASGOW MT     MOCLDY    64  41  42 SE13      29.90S HAZE
6HR MIN TEMP:  64; 6HR MAX TEMP:  82;

GREAT FALLS MT CLOUDY    74  41  30 S9        29.98S HAZE
6HR MIN TEMP:  72; 6HR MAX TEMP:  88;

CHEYENNE WY    CLEAR     56  44  64 W7        30.33R
6HR MIN TEMP:  55; 6HR MAX TEMP:  79;

SCOTTSBLUFF NE CLEAR     61  51  70 E5        30.17R
6HR MIN TEMP:  60; 6HR MAX TEMP:  84;

OMAHA NE       CLOUDY    64  62  93 N10       29.97R
6HR MIN TEMP:  63; 6HR MAX TEMP:  71; 6HR PCP: TRACE;

DES MOINES IA  CLOUDY    71  67  87 SW5       29.90F
6HR MIN TEMP:  71; 6HR MAX TEMP:  74; 6HR PCP: TRACE;

DAVENPORT IA   LGT RAIN  66  63  90 SE9       30.00F
6HR MIN TEMP:  65; 6HR MAX TEMP:  70; 6HR PCP:  0.26;

CHICAGO IL     CLOUDY    69  64  84 NE5       30.08S
6HR MIN TEMP:  69; 6HR MAX TEMP:  72;

EAU CLAIRE WI  FAIR      55  53  93 NE5       30.06R
6HR MIN TEMP:  54; 6HR MAX TEMP:  64;

LA CROSSE WI   CLOUDY    60  58  92 CALM      30.01R
6HR MIN TEMP:  59; 6HR MAX TEMP:  60; 6HR PCP:  0.21;

$$

  *****  SOME NATIONAL WEATHER *****

CITY           SKY/WX    TMP DP  RH WIND       PRES   REMARKS
LA GUARDIA NY  FAIR      72  57  59 CALM      30.18F
6HR MIN TEMP:  72; 6HR MAX TEMP:  81;

RALEIGH NC     MOCLDY    66  60  81 CALM      30.21S
6HR MIN TEMP:  65; 6HR MAX TEMP:  79;

ATLANTA GA     MOCLDY    74  68  81 SE5       30.18R
6HR MIN TEMP:  74; 6HR MAX TEMP:  79;

NEW ORLEANS LA FAIR      79  66  64 E6        30.00F
6HR MIN TEMP:  79; 6HR MAX TEMP:  86;

OKLAHOMA CITY  FAIR      73  66  78 S7        29.97S
6HR MIN TEMP:  71; 6HR MAX TEMP:  85;

ALBUQUERQUE NM MOCLDY    73  51  46 E23G29    30.26R
6HR MIN TEMP:  73; 6HR MAX TEMP:  84;

SALT LAKE CITY MOCLDY    79  38  22 S13       30.05S
6HR MIN TEMP:  79; 6HR MAX TEMP:  93;

LOS ANGELES CA CLEAR     74  67  78 W3        29.86S
6HR MIN TEMP:  74; 6HR MAX TEMP:  82;



USA.gov is the U.S. government's official web portal to all federal, state and local government web resources and services.